K5VP Weather Reports


Display with metric or nautical units.
time (UTC)temp
F
wind
direction
speed
MPH
gust
MPH
rain 1hr
in
rain 24hr
in
rain mn
in
humidity
%
barometer
mb
20260510134027 64 201 0.0 0.0 0.00 0.00 0.00 81 1017.5
20260510133527 64 201 0.0 0.0 0.00 0.00 0.00 80 1017.5
20260510133027 64 162 0.0 0.0 0.00 0.00 0.00 79 1017.5
20260510132532 64 75 0.0 0.0 0.00 0.00 0.00 80 1017.5
20260510132023 64 75 0.0 0.0 0.00 0.00 0.00 81 1017.5
20260510131529 63 75 0.0 0.0 0.00 0.00 0.00 83 1017.4
20260510131030 61 75 0.0 0.0 0.00 0.00 0.00 84 1017.4
20260510130526 60 75 0.0 0.0 0.00 0.00 0.00 87 1017.4
20260510130024 59 75 0.0 0.0 0.00 0.00 0.00 88 1017.4
20260510125504 58 75 0.0 0.0 0.00 0.00 0.00 89 1017.3
20260510124952 57 75 0.0 0.0 0.00 0.00 0.00 89 1017.2
20260510124451 57 75 0.0 0.0 0.00 0.00 0.00 90 1017.1
20260510123935 56 75 0.0 0.0 0.00 0.00 0.00 91 1017.1
20260510123431 56 74 0.0 0.0 0.00 0.00 0.00 91 1017.1
20260510122926 56 74 0.0 0.0 0.00 0.00 0.00 91 1017.1
20260510122419 56 74 0.0 0.0 0.00 0.00 0.00 92 1017.0
20260510121915 55 74 0.0 0.0 0.00 0.00 0.00 93 1017.0
20260510121418 55 74 0.0 0.0 0.00 0.00 0.00 93 1016.9
20260510120901 54 73 0.0 0.0 0.00 0.00 0.00 93 1016.9
20260510120408 54 73 0.0 0.0 0.00 0.00 0.00 93 1016.8
20260510115904 54 72 0.0 0.0 0.00 0.00 0.00 94 1016.7
20260510115348 53 72 0.0 0.0 0.00 0.00 0.00 94 1016.6
20260510114839 53 72 0.0 0.0 0.00 0.00 0.00 94 1016.7
20260510114335 52 72 0.0 0.0 0.00 0.00 0.00 94 1016.5
20260510113824 52 72 0.0 0.0 0.00 0.00 0.00 94 1016.4
20260510113326 52 72 0.0 0.0 0.00 0.00 0.00 94 1016.3
20260510112834 52 72 0.0 0.0 0.00 0.00 0.00 94 1016.4
20260510112326 52 117 0.0 0.0 0.00 0.00 0.00 94 1016.2
20260510111816 52 117 0.0 0.0 0.00 0.00 0.00 94 1016.3
20260510041545 58 89 0.0 0.0 0.00 0.00 0.00 84 1013.5
20260510041038 58 89 0.0 0.0 0.00 0.00 0.00 84 1013.5
20260510040541 58 89 0.0 0.0 0.00 0.00 0.00 84 1013.6
20260510040030 58 89 0.0 0.0 0.00 0.00 0.00 83 1013.6
20260510035536 59 89 0.0 0.0 0.00 0.00 0.00 82 1013.6
20260510035017 59 89 0.0 0.0 0.00 0.00 0.00 81 1013.6
20260510034508 59 89 0.0 0.0 0.00 0.00 0.00 81 1013.6
20260510034008 60 89 0.0 0.0 0.00 0.00 0.00 81 1013.6
20260510033505 60 89 0.0 0.0 0.00 0.00 0.00 79 1013.7
20260510032956 61 89 0.0 0.0 0.00 0.00 0.00 76 1013.6
20260510032449 61 89 0.0 0.0 0.00 0.00 0.00 75 1013.7
20260510031941 61 89 0.0 0.0 0.00 0.00 0.00 74 1013.6
20260510031425 62 89 0.0 0.0 0.00 0.00 0.00 73 1013.6
20260510030930 62 89 0.0 0.0 0.00 0.00 0.00 72 1013.7
20260510030436 62 89 0.0 0.0 0.00 0.00 0.00 72 1013.6
20260510025925 62 89 0.0 0.0 0.00 0.00 0.00 73 1013.6
20260510025423 62 89 0.0 0.0 0.00 0.00 0.00 72 1013.6
20260510024926 62 89 0.0 0.0 0.00 0.00 0.00 72 1013.5
20260510024407 62 89 0.0 0.0 0.00 0.00 0.00 72 1013.5
20260510023845 62 89 0.0 0.0 0.00 0.00 0.00 72 1013.5
20260510023338 63 89 0.0 0.0 0.00 0.00 0.00 71 1013.3
20260510022818 63 89 0.0 0.0 0.00 0.00 0.00 71 1013.3
20260510022306 63 89 0.0 0.0 0.00 0.00 0.00 70 1013.2
20260510021801 63 89 0.0 0.0 0.00 0.00 0.00 70 1013.2
20260510021258 63 89 0.0 0.0 0.00 0.00 0.00 69 1013.1
20260510020738 64 89 0.0 0.0 0.00 0.00 0.00 69 1013.1
20260510020244 64 89 0.0 0.0 0.00 0.00 0.00 68 1013.0
20260510015723 64 89 0.0 0.0 0.00 0.00 0.00 67 1012.9
20260510015205 64 89 0.0 0.0 0.00 0.00 0.00 67 1012.8
20260510014704 64 89 0.0 0.0 0.00 0.00 0.00 67 1012.7
20260510014210 65 89 0.0 0.0 0.00 0.00 0.00 66 1012.7
20260510013649 65 89 0.0 0.0 0.00 0.00 0.00 65 1012.5
20260510013131 65 89 0.0 0.0 0.00 0.00 0.00 65 1012.4
20260510012623 66 89 0.0 0.0 0.00 0.00 0.00 63 1012.4
20260510012112 66 89 0.0 0.0 0.00 0.00 0.00 63 1012.3
20260510011556 66 89 0.0 0.0 0.00 0.00 0.00 63 1012.2
20260510011044 67 89 0.0 0.0 0.00 0.00 0.00 61 1012.2
20260510010549 67 89 0.0 0.0 0.00 0.00 0.00 61 1012.2
20260510010042 67 89 0.0 0.0 0.00 0.00 0.00 61 1012.1
20260510005548 68 89 0.0 0.0 0.00 0.00 0.00 60 1012.1
20260510005039 68 89 0.0 0.0 0.00 0.00 0.00 58 1012.0
20260510004523 69 89 0.0 0.0 0.00 0.00 0.00 58 1012.0
20260510004010 69 89 0.0 0.0 0.00 0.00 0.00 56 1012.0
20260510003502 70 89 0.0 0.0 0.00 0.00 0.00 55 1011.9
20260510002948 71 89 0.0 0.0 0.00 0.00 0.00 55 1011.8
20260510002438 71 89 0.0 0.0 0.00 0.00 0.00 53 1011.8
20260510001920 72 88 0.0 0.0 0.00 0.00 0.00 52 1011.7
20260510001409 72 88 0.0 0.0 0.00 0.00 0.00 52 1011.7
20260510000913 73 88 0.0 0.0 0.00 0.00 0.00 50 1011.6
20260510000413 74 88 0.0 0.0 0.00 0.00 0.00 48 1011.6
20260509235903 75 88 0.0 0.0 0.00 0.00 0.00 48 1011.5
20260509235343 76 88 0.0 0.0 0.00 0.00 0.00 46 1011.5
20260509234851 77 88 0.0 0.0 0.00 0.00 0.00 44 1011.5
20260509234350 77 88 0.0 0.0 0.00 0.00 0.00 44 1011.4
20260509233833 79 88 0.0 0.0 0.00 0.00 0.00 41 1011.3
20260509233340 81 88 0.0 0.0 0.00 0.00 0.00 40 1011.3
20260509232837 82 88 0.0 0.0 0.00 0.00 0.00 41 1011.3
20260509232341 81 88 0.0 0.0 0.00 0.00 0.00 40 1011.4
20260509231847 81 87 0.0 0.0 0.00 0.00 0.00 41 1011.4
20260509231351 81 86 0.0 0.0 0.00 0.00 0.00 41 1011.4
20260509230833 80 86 0.0 0.0 0.00 0.00 0.00 42 1011.4
20260509230321 79 86 0.0 0.0 0.00 0.00 0.00 42 1011.4
20260509225815 80 86 0.0 0.0 0.00 0.00 0.00 40 1011.4
20260509225315 80 86 0.0 0.0 0.00 0.00 0.00 37 1011.3
20260509224803 81 86 0.0 0.0 0.00 0.00 0.00 35 1011.3
20260509224307 82 86 0.0 0.0 0.00 0.00 0.00 35 1011.3
20260509223750 83 86 0.0 0.0 0.00 0.00 0.00 34 1011.3
20260509223246 84 84 0.0 0.0 0.00 0.00 0.00 36 1011.3
20260509222725 83 84 0.0 0.0 0.00 0.00 0.00 34 1011.3
20260509222205 82 84 0.0 0.0 0.00 0.00 0.00 35 1011.3
20260509221701 81 84 0.0 0.0 0.00 0.00 0.00 37 1011.3
20260509221202 81 99 0.0 0.0 0.00 0.00 0.00 36 1011.3
20260509220649 82 84 0.0 1.0 0.00 0.00 0.00 37 1011.3
20260509220127 82 86 0.0 0.0 0.00 0.00 0.00 36 1011.3
20260509215631 82 43 0.0 0.0 0.00 0.00 0.00 36 1011.2
20260509215112 82 73 0.0 0.0 0.00 0.00 0.00 33 1011.2
20260509214609 82 214 0.0 0.0 0.00 0.00 0.00 33 1011.3
20260509214058 82 53 0.0 0.0 0.00 0.00 0.00 37 1011.2
20260509213537 82 56 0.0 0.0 0.00 0.00 0.00 37 1011.1
20260509213038 82 127 0.0 0.0 0.00 0.00 0.00 36 1011.1
20260509212531 82 87 0.0 0.0 0.00 0.00 0.00 39 1011.1
20260509212023 81 143 0.0 1.0 0.00 0.00 0.00 36 1011.0
20260509211523 81 40 0.0 0.0 0.00 0.00 0.00 38 1010.9
20260509211003 81 269 0.0 1.0 0.00 0.00 0.00 35 1011.0
20260509210505 81 206 0.0 1.0 0.00 0.00 0.00 34 1010.9
20260509205954 81 23 0.0 0.0 0.00 0.00 0.00 38 1011.1
20260509205452 81 244 0.0 3.0 0.00 0.00 0.00 37 1011.1
20260509204941 82 206 0.0 0.0 0.00 0.00 0.00 38 1011.0
20260509204447 82 206 0.0 0.0 0.00 0.00 0.00 37 1011.1
20260509203939 82 206 0.0 0.0 0.00 0.00 0.00 39 1011.1
20260509203428 82 205 0.0 0.0 0.00 0.00 0.00 38 1011.0
20260509202929 82 245 0.0 0.0 0.00 0.00 0.00 38 1011.1
20260509202424 81 141 0.0 0.0 0.00 0.00 0.00 42 1011.1
20260509201930 81 264 0.0 0.0 0.00 0.00 0.00 41 1011.1
20260509201418 81 69 0.0 3.0 0.00 0.00 0.00 37 1011.2
20260509200907 81 150 0.0 1.0 0.00 0.00 0.00 41 1011.3
20260509200413 80 103 0.0 1.0 0.00 0.00 0.00 42 1011.3
20260509195858 80 24 0.0 2.0 0.00 0.00 0.00 43 1011.4
20260509195339 80 101 0.0 0.0 0.00 0.00 0.00 44 1011.4
20260509194844 80 101 0.0 1.0 0.00 0.00 0.00 47 1011.4
20260509194329 80 94 0.0 2.0 0.00 0.00 0.00 44 1011.4
20260509193821 80 82 0.0 1.0 0.00 0.00 0.00 44 1011.5
20260509193329 80 9 0.0 0.0 0.00 0.00 0.00 43 1011.6
20260509192817 80 269 0.0 0.0 0.00 0.00 0.00 44 1011.6
20260509192313 79 66 0.0 0.0 0.00 0.00 0.00 44 1011.6
20260509191753 79 199 0.0 3.0 0.00 0.00 0.00 41 1011.7
20260509191248 80 226 0.0 0.0 0.00 0.00 0.00 41 1011.8
20260509190729 80 158 0.0 2.0 0.00 0.00 0.00 39 1011.9
20260509190219 80 271 0.0 2.0 0.00 0.00 0.00 44 1011.9
20260509185727 80 148 0.0 1.0 0.00 0.00 0.00 45 1011.9
20260509185235 80 205 0.0 0.0 0.00 0.00 0.00 47 1012.0
20260509184726 79 190 0.0 0.0 0.00 0.00 0.00 46 1012.1
20260509184206 79 107 0.0 0.0 0.00 0.00 0.00 48 1012.0
20260509183704 78 236 0.0 1.0 0.00 0.00 0.00 48 1012.0
20260509183152 78 30 0.0 0.0 0.00 0.00 0.00 48 1012.0
20260509182632 78 256 0.0 1.0 0.00 0.00 0.00 50 1012.0
20260509182119 78 75 0.0 0.0 0.00 0.00 0.00 50 1011.9
20260509181606 78 136 0.0 2.0 0.00 0.00 0.00 49 1012.0
20260509181055 77 52 0.0 0.0 0.00 0.00 0.00 52 1011.9
20260509180557 77 204 0.0 2.0 0.00 0.00 0.00 51 1011.9
20260509180047 77 94 0.0 2.0 0.00 0.00 0.00 50 1012.0
20260509175552 77 286 0.0 0.0 0.00 0.00 0.00 52 1012.1
20260509175032 77 255 0.0 3.0 0.00 0.00 0.00 50 1012.0
20260509174524 77 30 0.0 0.0 0.00 0.00 0.00 54 1012.0
20260509174013 76 28 0.0 0.0 0.00 0.00 0.00 53 1012.0
20260509173458 76 54 0.0 2.0 0.00 0.00 0.00 53 1012.0
20260509173001 76 37 0.0 2.0 0.00 0.00 0.00 53 1012.0
20260509172439 76 244 0.0 1.0 0.00 0.00 0.00 53 1012.0
20260509171940 76 213 0.0 5.0 0.00 0.00 0.00 51 1012.1
20260509171446 76 134 0.0 0.0 0.00 0.00 0.00 58 1012.0
20260509170932 75 208 0.0 2.0 0.00 0.00 0.00 56 1012.0
20260509170411 75 353 0.0 0.0 0.00 0.00 0.00 58 1012.0
20260509165906 74 264 0.0 5.0 0.00 0.00 0.00 59 1012.0
20260509165352 75 233 0.0 5.0 0.00 0.00 0.00 56 1012.0
20260509164832 75 0 0.0 0.0 0.00 0.00 0.00 58 1011.9
20260509164328 75 332 0.0 2.0 0.00 0.00 0.00 58 1011.9
20260509163829 74 264 0.0 0.0 0.00 0.00 0.00 59 1012.0
20260509163333 74 216 0.0 0.0 0.00 0.00 0.00 61 1012.0
20260509162841 73 216 0.0 2.0 0.00 0.00 0.00 59 1012.1
20260509162322 73 240 0.0 1.0 0.00 0.00 0.00 60 1012.1
20260509161804 73 341 0.0 0.0 0.00 0.00 0.00 60 1012.1
20260509161304 73 239 0.0 0.0 0.00 0.00 0.00 60 1012.1
20260509160742 73 205 0.0 0.0 0.00 0.00 0.00 62 1012.1
20260509160244 73 266 0.0 1.0 0.00 0.00 0.00 64 1012.1
20260509155747 72 264 0.0 0.0 0.00 0.00 0.00 62 1012.1
20260509155239 72 331 0.0 2.0 0.00 0.00 0.00 63 1012.1
20260509154746 72 276 0.0 0.0 0.00 0.00 0.00 62 1012.0
20260509154240 72 304 0.0 4.0 0.00 0.00 0.00 63 1012.1
20260509153744 72 259 0.0 3.0 0.00 0.00 0.00 63 1012.1
20260509153243 72 303 0.0 3.0 0.00 0.00 0.00 63 1012.2
20260509152736 72 182 0.0 1.0 0.00 0.00 0.00 65 1012.1
20260509152234 71 206 0.0 0.0 0.00 0.00 0.00 68 1012.1
20260509151718 71 265 0.0 0.0 0.00 0.00 0.00 68 1012.0
20260509151225 71 265 0.0 0.0 0.00 0.00 0.00 70 1012.0
20260509150703 70 287 0.0 0.0 0.00 0.00 0.00 69 1012.0
20260509150205 70 258 0.0 0.0 0.00 0.00 0.00 71 1011.9
20260509145659 69 26 0.0 0.0 0.00 0.00 0.00 72 1011.9
20260509145155 68 98 0.0 0.0 0.00 0.00 0.00 73 1011.8
20260509144646 68 52 0.0 2.0 0.00 0.00 0.00 73 1011.8
20260509144133 68 216 0.0 0.0 0.00 0.00 0.00 73 1011.8
20260509143623 68 232 0.0 2.0 0.00 0.00 0.00 73 1011.8
20260509143130 68 243 0.0 3.0 0.00 0.00 0.00 74 1011.8
20260509142625 67 248 0.0 1.0 0.00 0.00 0.00 75 1011.8
20260509142106 67 253 0.0 1.0 0.00 0.00 0.00 75 1011.7
20260509141603 67 279 0.0 0.0 0.00 0.00 0.00 78 1011.7
20260509141101 66 271 0.0 0.0 0.00 0.00 0.00 77 1011.7
20260509140555 66 92 0.0 0.0 0.00 0.00 0.00 78 1011.7
20260509140056 65 107 0.0 0.0 0.00 0.00 0.00 79 1011.6
20260509135600 65 80 0.0 0.0 0.00 0.00 0.00 79 1011.7
20260509135041 65 257 0.0 4.0 0.00 0.00 0.00 80 1011.6
20260509134523 64 168 0.0 0.0 0.00 0.00 0.00 81 1011.5